Regional Weather Roundup
Issued by NWS

Home | Current Version | Previous Version | Graphics & Text | Print | Product List | Glossary On
Versions: 1 2 3 4 5 6 7 8 9 10 11 12 13 14 15 16 17 18 19 20 21 22 23 24 25 26 27 28 29 30 31 32 33 34 35 36 37 38 39 40 41 42 43 44 45 46 47 48 49 50
000
ASUS43 KDMX 041906
RWRIA

WEATHER ROUNDUP FOR IOWA
NATIONAL WEATHER SERVICE DES MOINES IA
100 PM CST SUN DEC 04 2016

NOTE: "FAIR" INDICATES FEW OR NO CLOUDS BELOW 12,000 FEET WITH NO
SIGNIFICANT WEATHER AND/OR OBSTRUCTIONS TO VISIBILITY.

* - THESE STATIONS ARE NOT NWS STATIONS...THUS NOT UNDER NWS
QUALITY CONTROL.  THEY ALSO DO NOT REPORT WEATHER SUCH
AS PRECIPITATION OR FOG.

IAZ001>003-012>014-020>022-031>034-043>046-042000-
   NORTHWEST IOWA

CITY           SKY/WX    TMP DP  RH WIND       PRES   REMARKS
CARROLL *      CLOUDY    36  34  93 SW15G21   29.89F WCI  26
CHEROKEE *     SUNNY     42  37  85 SW8       29.86F
DENISON *      PTSUNNY   37  36  93 SW15      29.88F WCI  28
LE MARS *      SUNNY     45  34  65 W12       29.87F
ORANGE CITY *  SUNNY     43  36  75 W13       29.84F
SHELDON *      SUNNY     43  37  81 W15       29.82F
SIOUX CITY     SUNNY     48  36  63 SW5       29.88F
SPENCER        MOSUNNY   42  35  76 W13       29.84F
STORM LAKE *   MOSUNNY   34  32  93 SW13G18   29.86F WCI  25
$$

IAZ055>058-069>071-079>083-090>094-042000-
   SOUTHWEST IOWA

CITY           SKY/WX    TMP DP  RH WIND       PRES   REMARKS
ATLANTIC *     PTSUNNY   36  32  87 SW15      29.93F FOG     WCI  26
AUDUBON *      CLOUDY    34  30  86 SW9       29.91F FOG     WCI  26
CLARINDA *       N/A     39  37  93 W8        29.95F WCI  34
COUNCIL BLFS * PTSUNNY   34  32  93 SW10      29.93F WCI  26
CRESTON *      CLOUDY    34  34 100 W14       29.93F WCI  24
HARLAN  *      PTSUNNY   34  34 100 SW9       29.94F FOG     WCI  26
LAMONI         CLOUDY    36  34  92 W7        29.93F WCI  30
RED OAK *      CLOUDY    39  36  87 SW12      29.94F WCI  32
SHENANDOAH *   PTSUNNY   39  36  87 SW10      29.95F WCI  32
$$

IAZ047>049-059>061-072>074-084-042000-
   CENTRAL IOWA

CITY           SKY/WX    TMP DP  RH WIND       PRES   REMARKS
AMES           CLOUDY    34  33  96 W10       29.90F WCI  26
ANKENY *       CLOUDY    36  36 100 W10       29.92F WCI  28
BOONE *        CLOUDY    34  32  93 SW13      29.88F WCI  25
CHARITON *       N/A     36  34  93 SW9       29.91F WCI  29
DES MOINES     CLOUDY    37  34  89 W9        29.91F WCI  30
GRINNELL*      CLOUDY    33  32  96 SW9       29.91F WCI  25
KNOXVILLE *    CLOUDY    36  34  93 SW9       29.90F WCI  29
MARSHALLTOWN   CLOUDY    33  33 100 SW10      29.89F FOG     WCI  25
NEWTON *       CLOUDY    34  32  93 SW8       29.90F FOG     WCI  27
PELLA *        CLOUDY    35  34  96 SW6       29.92F WCI  29
PERRY *        CLOUDY    35  34  95 SW12      29.91F WCI  27
$$

IAZ004>006-015-016-023>025-035-036-042000-
   NORTH CENTRAL IOWA

CITY           SKY/WX    TMP DP  RH WIND       PRES   REMARKS
ALGONA *       CLOUDY    36  34  93 SW14      29.86S WCI  27
CLARION *      CLOUDY    34  34 100 SW13      29.88F WCI  25
ESTHERVILLE    PTSUNNY   38  36  92 SW14      29.82F WCI  30
FORT DODGE *   CLOUDY    36  30  80 SW9       29.89F WCI  29
MASON CITY     CLOUDY    34  31  88 SW15      29.87F WCI  24
FOREST CITY *  CLOUDY    36  36 100 SW10      29.85F WCI  28
WEBSTER CITY * CLOUDY    34  34 100 SW10G16   29.87F WCI  26
IOWA FALLS *   CLOUDY    35  33  92 SW13      29.89F FOG     WCI  26
$$

IAZ007>011-017>019-026>030-037>042-050>054-066-042000-
   NORTHEAST IOWA

CITY           SKY/WX    TMP DP  RH WIND       PRES   REMARKS
CEDAR RAPIDS   LGT SNOW  32  32 100 S6        29.92F VSB 1   WCI  26
CHARLES CITY * FOG       34  34 100 S9        29.88F VSB 1/4 WCI  26
CLINTON *      LGT SNOW  32  30  93 SE9       29.96F FOG     WCI  24
DECORAH *      CLOUDY    32  30  93 S13       29.87F FOG     WCI  22
DUBUQUE        SNOW      30  29  96 S12       29.93F VSB 1/2 WCI  20
MONTICELLO *   LGT SNOW  32  30  93 SE9       29.93F VSB 3/4 WCI  24
OELWEIN *      CLOUDY    32  32 100 S14       29.90F FOG     WCI  22
WATERLOO       CLOUDY    33  31  92 S9        29.90F WCI  25
$$

IAZ064-065-067-068-078-042000-
   EAST CENTRAL IOWA

CITY           SKY/WX    TMP DP  RH WIND       PRES   REMARKS
DAVENPORT      HVY SNOW  31  30  96 SE7       29.96F VSB 1/4 WCI  24
IOWA CITY      LGT SNOW  33  32  96 S3        29.96F VSB 3/4
MUSCATINE *    LGT SNOW  34  32  93 SE5       29.96F VSB 3/4 WCI  30
QUAD CITIES    SNOW      32  30  92 E3        29.96F VSB 1/2
$$

IAZ062-063-075>077-085>089-095>099-042000-
   SOUTHEAST IOWA

CITY           SKY/WX    TMP DP  RH WIND       PRES   REMARKS
BURLINGTON     LGT SNOW  32  32 100 SE5       29.93F VSB 3/4 WCI  27
FAIRFIELD *    CLOUDY    34  32  93 S6        29.93F WCI  29
FORT MADISON * LGT SNOW  34  32  93 CALM      29.95F VSB 3/4
KEOKUK *       LGT SNOW  34  32  93 CALM      29.94F
OSKALOOSA *    CLOUDY    33  32  96 S5        29.93F WCI  29
CENTERVILLE *  CLOUDY    36  34  93 S8        29.94F WCI  29
OTTUMWA        CLOUDY    34  32  92 S7        29.92F WCI  28
WASHINGTON *   LGT SNOW  34  32  93 S6        29.95F WCI  29
$$

ABBREVIATIONS USED IN REMARKS
   TC - TEMPERATURES IN CELSIUS
  WCI - WIND CHILL INDEX
   HX - HEAT INDEX
  VSB - VISIBILITY
$$





USA.gov is the U.S. government's official web portal to all federal, state and local government web resources and services.